Bodensee (Kressbronn): 6,7°C  -  Teich der Wetterzentrale Bad Schussenried: 6,1°C |  Schneehöhe Kreuzthal-Steinberg (930 m ü. NN): 8 cm   
01.04.2020Höhe
ü. NN
ZeitTemperatur (°C)Nieder-
schlag
Luft-
feuchte
Luft-
druck
Wind
StationaktuellMinimumMaximumaktuellMaximum
Aldingen654 m04:01-2,0-2,6 (07:35)-0,3 (16:02)0,0 l/m²74%1024,21,9 km/h (1 Bft) SW29,6 km/h (5 Bft) W (14:48)
Allmendingen541 m04:00-5,1-5,1 (07:35)-2,1 (15:10)0,0 l/m²85%1023,93,2 km/h (1 Bft) O-NO35,4 km/h (5 Bft) O (15:35)
Altshausen574 m04:00-2,4-2,5 (03:53)-1,1 (00:16)0,0 l/m²63%1021,76,4 km/h (2 Bft) N-NO8,0 km/h (2 Bft) N-NO (01:07)
Amstetten-Reutti663 m04:00-3,4-3,4 (05:15)-1,5 (16:55)0,0 l/m²82%1023,96,4 km/h (2 Bft) O48,3 km/h (6 Bft) W (15:55)
Amtzell-Grenis677 m04:00-2,8-3,1 (03:35)-1,4 (00:00)0,0 l/m²60%1023,66,4 km/h (2 Bft) W-SW6,4 km/h (2 Bft) W-SW (00:00)
Aulendorf570 m04:00-1,9-1,9 (03:56)-0,5 (00:00)0,0 l/m²68%1022,60,0 km/h (0 Bft) NO11,3 km/h (2 Bft) NO (02:20)
Bad Krozingen233 m04:00-0,4-0,4 (07:30)3,7 (16:05)0,0 l/m²69%1023,60,0 km/h (0 Bft) S-SW38,1 km/h (5 Bft) N (17:05)
Bad Saulgau595 m04:00-3,8-3,8 (06:45)-1,9 (15:00)0,0 l/m²82%1022,40,0 km/h (0 Bft) SO25,7 km/h (4 Bft) S (11:35)
Bad Saulgau, Mannsgrab588 m04:02-4,2-4,3 (03:44)-1,7 (00:17)0,0 l/m²85%1024,80,0 km/h (0 Bft) W-NW0,0 km/h (0 Bft) N (00:00)
Bad Saulgau-Lampertsweiler627 m04:00-1,4-1,4 (03:55)0,2 (00:00)0,0 l/m²71%1025,519,3 km/h (3 Bft) N-NW22,5 km/h (4 Bft) N-NW (01:15)
Bad Schussenried572 m04:00-3,1-3,1 (03:50)-1,1 (00:00)0,0 l/m²84%1021,98,0 km/h (2 Bft) NO9,7 km/h (2 Bft) NO (03:15)
Bergatreute615 m01:45-0,7-0,7 (00:45)0,0 (00:00)0,0 l/m²77%1023,512,9 km/h (3 Bft) NO16,1 km/h (3 Bft) O-NO (01:40)
Biberach (Riss), Boehringer533 m04:10-3,4-3,5 (04:10)-1,1 (00:30)0,0 l/m²85%1022,65,0 km/h (1 Bft) N-NW11,9 km/h (3 Bft) N (03:00)
Biberach (Riss), Realschule553 m04:00-2,8-2,8 (03:45)-0,3 (00:00)0,0 l/m²82%1024,66,4 km/h (2 Bft) N11,3 km/h (2 Bft) N-NO (03:35)
Burgrieden523 m04:00-2,7-2,7 (03:50)-0,4 (00:00)0,0 l/m²78%1023,60,0 km/h (0 Bft) O-NO4,8 km/h (1 Bft) O-NO (02:50)
Burgrieden-Hochstetten510 m04:00-3,2-3,2 (06:50)-0,9 (15:40)0,0 l/m²86%1024,14,8 km/h (1 Bft) N-NW25,7 km/h (4 Bft) NO (12:55)
Ebersbach579 m04:00-1,6-1,6 (04:00)-0,1 (00:00)0,0 l/m²78%1024,04,8 km/h (1 Bft) N16,1 km/h (3 Bft) NO (01:25)
Ebersbach-Boos605 m04:00-2,6-2,7 (03:25)-0,1 (00:00)0,0 l/m²83%1023,717,7 km/h (3 Bft) NO22,5 km/h (4 Bft) O (01:00)
Ebersbach-Menzenweiler661 m04:00-2,4-2,4 (03:40)-0,6 (00:00)0,0 l/m²82%1023,620,9 km/h (4 Bft) NO24,1 km/h (4 Bft) O-NO (01:05)
Ehingen535 m01:10-2,5-2,5 (01:10)-1,3 (00:05)0,0 l/m²70%1025,40,0 km/h (0 Bft) N-NO5,0 km/h (1 Bft) N-NO (00:15)
Erlenmoos645 m04:00-2,4-2,4 (04:00)-0,9 (00:00)0,0 l/m²84%1023,511,3 km/h (2 Bft) O-NO12,9 km/h (3 Bft) O-NO (01:35)
Ertingen569 m04:00-2,5-2,7 (02:50)-0,6 (00:00)0,0 l/m²82%1023,511,3 km/h (2 Bft) N-NO12,9 km/h (3 Bft) N-NO (00:10)
Friedrichshafen405 m03:55-0,7-0,7 (06:45)0,9 (13:30)0,0 l/m²74%1023,38,0 km/h (2 Bft) N-NO27,4 km/h (4 Bft) NO (15:10)
Günzburg443 m04:00-3,2-3,2 (04:00)-1,1 (00:00)0,0 l/m²85%1021,80,0 km/h (0 Bft) NO0,0 km/h (0 Bft) NO (00:00)
Hochdorf-Appendorf537 m04:00-3,6-4,4 (03:40)-1,7 (00:15)0,0 l/m²64%1023,43,2 km/h (1 Bft) O-NO14,5 km/h (3 Bft) N-NW (03:20)
Höchsten802 m04:00-2,9-2,9 (03:45)-1,4 (00:00)0,0 l/m²78%1021,219,3 km/h (3 Bft) O-NO25,7 km/h (4 Bft) NO (02:45)
Horgenzell618 m04:00-1,9-1,9 (03:45)-0,6 (00:05)0,0 l/m²76%1021,214,5 km/h (3 Bft) N-NO19,3 km/h (3 Bft) N-NO (00:50)
Hoßkirch632 m04:00-4,3-4,3 (03:35)-1,0 (00:15)0,0 l/m²84%1022,40,0 km/h (0 Bft) O-NO14,5 km/h (3 Bft) O-NO (00:20)
Isny, Am Dreifingerbach695 m04:00-2,2-2,9 (02:30)0,1 (01:00)0,0 l/m²74%1022,20,0 km/h (0 Bft) W14,5 km/h (3 Bft) O-NO (01:05)
Isny, Weidachweg706 m04:00-0,6-1,3 (01:25)0,3 (00:25)0,0 l/m²60%1024,44,8 km/h (1 Bft) S-SW12,9 km/h (3 Bft) W (00:10)
Kappel-Grafenhausen163 m03:551,31,3 (06:55)3,3 (14:55)0,0 l/m²64%1021,70,0 km/h (0 Bft) N30,6 km/h (5 Bft) N-NO (16:55)
Kißlegg-Staibshof709 m04:00-2,5-2,5 (03:50)-0,9 (00:00)0,0 l/m²81%1023,36,4 km/h (2 Bft) O-NO14,5 km/h (3 Bft) O (01:50)
Kressbronn398 m04:02-0,4-0,4 (03:56)1,4 (00:00)0,0 l/m²69%1021,74,8 km/h (1 Bft) O-NO22,5 km/h (4 Bft) O-NO (00:54)
Kreuzthal-Steinberg-Alpe930 m04:00-4,7-4,8 (04:00)-2,5 (00:00)0,0 l/m²92%1023,01,1 km/h (1 Bft) S-SO22,0 km/h (4 Bft) W-NW (00:10)
Kreuzthal-Steinberggipfel1040 m04:00-3,7-4,0 (02:20)-3,1 (00:10)-80%1023,014,8 km/h (3 Bft) O-NO37,1 km/h (5 Bft) O-SO (00:10)
Kristberg im Montafon (AT)1425 m04:00-5,6-5,9 (02:56)-5,3 (00:40)0,0 l/m²59%1026,31,8 km/h (1 Bft) O10,1 km/h (2 Bft) NO (01:47)
Laupheim500 m04:00-2,7-2,8 (03:10)0,0 (00:00)0,0 l/m²80%1023,29,7 km/h (2 Bft) O9,7 km/h (2 Bft) O-SO (00:20)
Leutkirch-Heggelbach670 m04:00-3,5-3,5 (04:00)-2,6 (00:30)0,0 l/m²83%1022,63,2 km/h (1 Bft) NO8,0 km/h (2 Bft) N-NO (03:30)
Lindau-Insel420 m04:00-0,4-0,4 (07:25)1,8 (14:55)0,0 l/m²69%1022,26,4 km/h (2 Bft) O-NO29,0 km/h (5 Bft) NO (17:05)
Lindau-Stadt412 m04:00-1,1-1,1 (07:25)1,2 (14:55)0,0 l/m²72%1022,44,8 km/h (1 Bft) NO33,8 km/h (5 Bft) N-NO (15:40)
Maierhöfen im Allgäu733 m04:00-2,2-2,2 (03:10)-1,2 (01:35)0,0 l/m²73%1022,88,0 km/h (2 Bft) O25,7 km/h (4 Bft) O-SO (02:05)
Maselheim543 m04:00-4,4-4,4 (06:40)-2,3 (13:20)0,0 l/m²83%1024,00,0 km/h (0 Bft) S-SW24,1 km/h (4 Bft) O-NO (15:20)
Maselheim-Sulmingen548 m04:00-4,3-4,3 (06:40)-2,2 (15:15)0,0 l/m²86%1025,20,0 km/h (0 Bft) N20,9 km/h (4 Bft) N-NO (12:15)
Mietingen-Baltringen528 m04:00-3,7-4,1 (03:25)-1,3 (00:45)0,0 l/m²83%1025,50,0 km/h (0 Bft) O-NO4,8 km/h (1 Bft) N-NO (01:20)
Mindelheim-Apfeltrach620 m04:01-4,6-4,6 (03:58)-2,7 (00:00)0,0 l/m²86%1025,00,0 km/h (0 Bft) NO0,0 km/h (0 Bft) O-NO (00:00)
Mittelbiberach577 m04:01-3,1-3,2 (04:00)-1,0 (00:16)0,0 l/m²80%1024,66,4 km/h (2 Bft) NO11,2 km/h (2 Bft) NO (01:21)
Neresheim552 m04:00-5,5-5,5 (04:00)-2,0 (00:00)0,0 l/m²85%1022,70,0 km/h (0 Bft) O4,0 km/h (1 Bft) NO (01:00)
Neukirch570 m04:00-2,7-2,7 (05:25)-0,9 (14:35)0,0 l/m²79%1022,96,4 km/h (2 Bft) N37,0 km/h (5 Bft) N-NO (11:55)
Ochsenhausen, Birkenstraße613 m04:00-4,3-4,3 (07:10)-2,2 (12:50)0,0 l/m²79%1024,20,0 km/h (0 Bft) SO3,2 km/h (1 Bft) S-SW (07:05)
Ochsenhausen, Unt. Wiesen575 m04:00-4,4-4,6 (03:50)-2,4 (00:00)0,0 l/m²85%1025,20,0 km/h (0 Bft) NO4,8 km/h (1 Bft) NO (00:00)
Opfenbach-Göritz561 m04:01-5,0-5,1 (03:56)-2,8 (00:00)0,0 l/m²79%1021,01,4 km/h (1 Bft) O-NO6,5 km/h (2 Bft) O-NO (00:18)
Ostrach619 m04:00-3,7-3,7 (03:45)-0,6 (00:00)0,0 l/m²86%1021,91,6 km/h (1 Bft) N-NO4,8 km/h (1 Bft) NO (00:00)
Ravensburg, Goethestraße428 m03:55-0,3-0,3 (03:40)1,3 (00:00)0,0 l/m²74%1022,49,7 km/h (2 Bft) O-NO14,5 km/h (3 Bft) O-NO (02:45)
Ravensburg-Wernsreute511 m04:00-2,0-2,0 (06:15)0,0 (15:50)0,0 l/m²78%1025,416,1 km/h (3 Bft) N35,4 km/h (5 Bft) N-NO (11:45)
Reichenbach an der Fils343 m04:00-1,5-1,5 (03:45)1,0 (00:00)0,0 l/m²75%1026,34,8 km/h (1 Bft) O-SO11,3 km/h (2 Bft) O (01:20)
Riedlingen530 m04:00-2,3-2,3 (03:50)-1,0 (00:00)0,0 l/m²79%1023,70,0 km/h (0 Bft) NO0,0 km/h (0 Bft) N (00:00)
Rißtissen489 m04:00-2,1-2,1 (04:00)-0,2 (00:00)0,0 l/m²84%1021,36,4 km/h (2 Bft) O-NO8,0 km/h (2 Bft) O-NO (03:30)
Rottweil-Hausen681 m04:03-3,6-3,7 (03:28)-1,9 (00:00)0,0 l/m²80%1024,01,4 km/h (1 Bft) N-NO6,5 km/h (2 Bft) NO (02:14)
Schemmerhofen520 m04:002,72,7 (00:00)2,7 (00:00)0,0 l/m²55%1022,70,0 km/h (0 Bft) NO0,0 km/h (0 Bft) NO (00:00)
Silbertal im Montafon (AT)884 m04:00-3,6-3,6 (03:59)-1,6 (00:01)0,0 l/m²84%1026,00,0 km/h (0 Bft) O-NO0,0 km/h (0 Bft) O-NO (00:00)
Tettnang466 m03:59-0,4-0,5 (03:21)1,0 (00:00)0,0 l/m²69%1022,67,9 km/h (2 Bft) S16,2 km/h (3 Bft) O-SO (01:07)
Tuttlingen648 m03:56-3,6-3,6 (03:56)-2,1 (00:01)0,0 l/m²73%1024,40,0 km/h (0 Bft) W-SW5,2 km/h (1 Bft) W-SW (03:26)
Tuttlingen, Möhringer-Vorstadt711 m04:00-4,1-4,1 (07:10)-2,4 (16:05)0,0 l/m²81%1023,64,8 km/h (1 Bft) O-NO25,7 km/h (4 Bft) N-NW (12:35)
Ummendorf547 m04:00-2,8-2,9 (03:50)-0,7 (00:10)0,0 l/m²65%1024,80,0 km/h (0 Bft) O16,1 km/h (3 Bft) O (01:05)
Ummendorf-Fischbach558 m04:00-4,2-4,3 (03:55)-1,9 (01:25)0,0 l/m²68%1024,40,0 km/h (0 Bft) O0,0 km/h (0 Bft) O (00:00)
Waldburg707 m04:00-2,1-2,1 (03:30)-0,8 (00:00)0,0 l/m²76%1022,49,7 km/h (2 Bft) N19,3 km/h (3 Bft) N (02:35)
Waltenhofen im Allgäu720 m04:00-6,3-6,3 (03:55)-2,2 (01:05)0,0 l/m²86%1023,30,0 km/h (0 Bft) N-NW17,7 km/h (3 Bft) N-NW (11:50)
Wangen, Südring548 m04:00-2,4-2,4 (03:54)-0,3 (00:00)0,0 l/m²79%1022,43,2 km/h (1 Bft) NO13,0 km/h (3 Bft) NO (01:25)
Warthausen-Birkenhard581 m04:03-3,3-3,4 (03:48)-1,2 (00:00)0,0 l/m²83%1023,710,1 km/h (2 Bft) N11,9 km/h (3 Bft) N-NO (02:49)
Winterlingen785 m04:00-4,9-4,9 (04:00)-2,8 (01:00)0,0 l/m²82%1023,02,5 km/h (1 Bft) N-NO3,6 km/h (1 Bft) NO (00:55)

niederschlagsdatenbank | info | login - erfassung

Sollten Sie Interesse haben, an der Niederschlagsdatenbank teilzunehmen, finden Sie > hier < weitere Informationen.
Datum: . . Kalender
Anmerkung:0,0 = nicht messbarer Niederschlag
 -  = kein Niederschlag
 k  = kumulierter Niederschlag

< 29.08.201931.08.2019 >


Niederschlagswerte vom 30.08.2019    -    derzeit 112 Stationen

Die Niederschlagswerte des gewählten Tages lassen sich durch Klicken auf das Datum sortieren.
Die Angaben sind in l/m².

Station27.08.28.08.29.08.30.08.31.08.01.09.02.09.Bemerkung 30.08.
Aichstetten Ulmenstraße 7--9,8--15,01,0
Aichstetten-Nestbaum Nestbaum--9,0--7,0-
Albbruck Furmisstr. 18-----0,0-
Sonne +32°C Nachts +16°C
Allmendingen Querqueviller Ring 6-------
Amstetten-Reutti Gassenäcker 13---0,2---
Regen
Aulendorf Steinenbacher Weg 33--21,0--21,5-
Aulendorf-Blönried Heuweg 32-5,60,2--13,0-
Bad Bellingen Rheinstraße 76-------
Bad Buchau Hanfweiher 1-----6,0-
Bad Saulgau Walserweg-----7,0-
Bad Saulgau-Hochberg Lampertsweiler Straße 12--5,8--9,0-
Bad Schussenried Konradstraße-0,00,1--7,60,0
Bad Schussenried Lortzingstrasse-----9,00,0
Bad Schussenried Klosterstraße-----7,0-
Bad Schussenried Theodor-Storm-Strasse-----7,20,0
Bad Schussenried-Hopferbach Unterer Öschweg 16/1--0,2--9,0-
Bad Schussenried-Lufthütte Hauptgasse 17-----9,0-
Bad Schussenried-Sattenbeuren Ortsstraße 7-------
Bad Schussenried-Schwaigfurt Schwaigfurt 2-----14,5-
Bad Waldsee-Haisterkirch Zur Spitzenkapelle 1--6,5-0,024,70,7
+14/+27°C, sonniger Sommertag
Bad Wurzach-Seibranz Kimpflerhof 2 --7,0--9,0-
Baienfurt Untere Bergstrasse 7--5,0--21,0-
Balzheim Hinterm Liess 19-----5,0-
Berg-Kleintobel Kleintobel--1,8--25,20,1
Biberach Amriswilstrasse-----4,0-
Biberach Strölinweg-----4,0-
Biberach Erlenweg-------
Biberach Neue Heimat 5-------
Biberach Mittelbergstraße 9-----3,0-
Biberach Auf dem Lindele-------
Biberach-Bergerhausen Löcherstr.1-----3,0-
Bierstetten Schloßbühl 6-----9,5-
Blaubeuren-Pappelau Sotzenhauserstr.7----30,0--
Bühlertal Wolfinstraße 16-----3,0-
Dettingen a. d. Iller Schleifweg 4--29,0--13,0-
Dornstadt-Tomerdingen Maienweg 9-----0,6-
Dürnau Dorfäckerweg 5-------
Eberhardzell Lilienweg-0,07,6--10,0-
Ebersbach-Roßwälden Appenwiesen-----0,0-
Wieder sonnig und heiß

14,4 bis 30,3 Grad
Ehingen Rosenstraße--0,0--0,80,0
Ehingen Zanderstraße-------
Ehingen Schlaufenbühl-------
Ehingen Schillerstraße-----0,0-
Ehingen-Herbertshofen Tobelweg 9-------
Eislingen Albstraße 125--0,0--0,1-
Gewitter
Erbach-Bach Hauptstraße 24-------
Erlenmoos Haldenweg 15--10,8--24,4-
Füramoos Hungersberg 1--20,6--43,90,7
Gutenzell Kleinser Berg 1--2,0--17,5-
Gutenzell-Hürbel Bei der Sägmühle 1-----5,5-
Herbertingen Drosselweg--0,3--3,0-
Ab Mittag Quellwolken von der Alb her.Ansonsten Sommerlich bei max.28 [weiterlesen...]
Herbertingen Hirschstrasse-----4,5-
Hochdorf-Schweinhausen Lindenweg 2-----8,2-
Hohentengen-Bremen Bremer Halde 4-----3,6-
Horgenzell-Ringgenweiler Ringgenweiler 620-0,34,1--23,01,0
Hüttisheim Ulmer Weg 2-----1,5-
Illerkirchberg Mahdauweg 20-----1,5-
Illerrieden-Wangen Am Muckenberg 12------0,2
Immenstaad Stockwiesen 10-------
Inzigkofen Butzenweg 1-----1,0-
Isny Am Dreifingerbach 39-0,20,6--13,60,8
Kirchberg Rosenstr. 7---4,4 k-12,5-
Regen
Kreuzthal-Steinberg-Alpe Im Kreuzbachthal 85-0,31,5--13,70,6
Langenau Wasserstr. 54-1-------
Langenenslingen Schattenweiler Str. 18-----0,20,0
Bodennebel
Leutkirch Unterer Auenweg 25--5,0--9,00,2
Leutkirch Nachtigallenweg 28--7,0--14,51,0
Leutkirch-Adrazhofen Bergstraße 20--4,0--23,01,0
Merklingen Millergasse 9-------
Mietingen Seerosenweg 10-----1,50,5
Mietingen-Walpertshofen Bussenweg 31-----2,0-
Mittelbiberach-Reute Rindenmooser Straße 2-----4,0-
Moosburg Käserweg 5-----5,5-
Hochsommerlich, teils bewölkt.
Münsingen-Rietheim In der Lise 20--8,0--0,2-
Neresheim Alfred-Delp-Straße 8-----0,0-
Oberdischingen Normannenstraße 7-----0,3-
Ochsenhausen Ehrensberger Weg 5--1,2--43,5-
Öpfingen Hauptstraße 99-----0,40,0
Ostrach Uhlandweg-6,5---18,0-
Pfaffenhofen-Kadeltshofen Mühlbachstraße 4---0,0-0,0-
Nebelnässe
Pfullendorf Am Schweizersbild -----0,3-
Rangendingen Donaustraße 19--22,0----
Ravensburg Bleicherstraße-----25,6-
Ravensburg-Schmalegg St.-Magdalena-Ring 42-0,51,5--29,9-
Ravensburg-Wernsreute Wernsreute 25--1,8-0,628,00,4
Ravensburg-Weststadt Karl-Erb-Ring 142--2,0--27,2-
Regensburg Orleansstraße 3-------
Riedhausen Blütenweg 13--3,0--4,60,4
Temp. + 13,6°C / + 13,6°C, Windböen SW 17,7 km/h
Riedlingen Berliner Str. 41-------
Riedlingen-Neufra Panoramaweg-------
Riedlingen-Neufra Riedlinger Strasse-------
+ 18,1 Grad, 87 % LF, wolkenloser Himmel
Schelklingen-Gundershofen Schwarzer-Straße 14-----2,0-
Temp. zw. +11,1°C und +42,8°C. Morgens klar, mittags Sonne und Wolke [weiterlesen...]
Schemmerberg Drosselweg 9-----2,5-
Schwörstadt Schulstrasse 19-----0,4-
Seekirch Haldenberg 7-----2,0-
Sigmaringendorf Weingartenstraße 7-------
Tuttlingen Möhringerstraße 11-----0,3-
Ulm Eberhardtstraße 75-----0,0-
Ummendorf Tulpenweg-----5,0-
Ummendorf Friedrich-Schiller-Str.--0,0--5,00,0
Uttenweiler-Ahlen Seekircher Straße 8--0,1----
Vöhringen (Schwarzwald) Drosselweg 3-------
Waldburg Kastanienweg11-------
Wangen-Bergerhöhe Berg 2-1,81,4--16,61,0
Warthausen An der Schloßhalde ----2,0--
Warthausen Schwabenwiesen -----1,4-
Warthausen-Barabein Barabein 20-----2,0-
Bodennebel
Weingarten Laurastraße--6,0--18,01,0
+ 14,8 ° C um 7.30 Uhr, 964 hPa,
Weingarten Hoyerstraße-------
Weingarten Marienstraße--4,5--19,5-
Wolfegg-Veesers Veesers 1-----23,0-
Wolpertswende Aulendorfer Str. 17-19,55,7--11,2-

Stillgelegte Niederschlagsstationen    -    derzeit 49 Stationen

StationLetzte Meldung27.08.28.08.29.08.30.08.31.08.01.09.02.09.Bemerkung 30.08.
Allmannsweiler Eggatsweilerstr.2802.09.2014-------
Aulendorf-Rugetsweiler Erikaweg 325.07.2013-------
Aulendorf-Zollenreute Imterstraße 1209.02.2019-------
Bad Saulgau Willi-Burth-Straße19.09.2011-------
Bad Saulgau Eichendorffweg28.03.2013-------
Bad Saulgau Seewattenstraße 12815.01.2014-------
Bad Saulgau-Lampertsweiler Valentinstr. 2618.02.2015-------
Bad Schussenried-Steinhausen Drosselgasse 4/126.09.2012-------
Bad Waldsee-Michelwinnanden Michelberg 531.12.2014-------
Bad Waldsee-Osterhofen Hochwaldgasse 406.03.2015-------
Bad Waldsee-Steinach Hofraingasse 1510.11.2013-------
Bad Wurzach-Dietmanns Postweg 519.01.2019-------
Bad Wurzach-Haidgau Wengener Straße 507.10.2012-------
Bad Wurzach-Ziegelbach Ziegelbach-Greut 507.11.2014-------
Bergatreute Bolanden 113.02.2012-------
Betzenweiler Offinger Straße 505.01.2017-------
Burgrieden Am Nonnenberg 328.10.2013-------
Burgrieden-Rot Schmiedgasse 518.09.2013-------
Eberhardzell Schillerstraße05.07.2010-------
Ehingen Am Elzengraben17.06.2016-------
Gammertingen Schillerstraße 2216.01.2016-------
Griesingen Blumenstraße 906.10.2015-------
Günzburg Erlenbadweg 34 1/231.12.2010-------
Hoßkirch Kirchstraße 805.01.2018-------
Ingoldingen-Grodt Ingoldinger Weg 1919.11.2016-------
Kisslegg Kirchmoosstraße02.05.2011-------
Krauchenwies-Hausen Rosenrain 123.11.2013-------
Kressbronn Irisstraße 410.03.2010-------
Leutkirch-Ottmannshofen Spitalriedstraße 527.07.2012-------
Leutkirch-Rotis Rotis 5/208.05.2016-------
Leutkirch-Wuchzenhofen Untere Kirchstraße 18/119.09.2016-------
Mietingen Hangweg 1530.12.2017-------
Mössingen-Bästenhardt Weissdornweg 721.07.2014-------
Ostrach Heiligenberger Straße19.08.2013-------
Pfullendorf Ringstraße 18.03.2012-------
Ravensburg Olgastraße30.10.2016-------
Seltmans Amselweg 2209.04.2013-------
Stuttgart-Bad Cannstatt Beuthener Str. 6703.02.2013-------
Stuttgart-Möhringen Glashütter Weg 1023.04.2017-------
Stuttgart-Rohr Hirschsprung 307.11.2012-------
Talheim Im Schecken 2121.08.2016-------
Tannheim Eggmannstr. 42 22.10.2017-------
Tettnang-Ramsbach Jahnstr. 24/126.03.2011-------
Tuttlingen-Möhringen Belchenstraße01.01.2015-------
Ummendorf Bergstraße23.10.2017-------
Vogt Mühlwies 1822.05.2015-------
Wangen-Atzenberg Keplerweg 324.02.2019-------
Weingarten Bischof-Sproll-Straße30.06.2011-------
Wilhelmsdorf Riedhauser Straße 28.10.2012-------
Wilhelmsdorf Seefeld20.08.2013-------
Wurmlingen An der Steig 3014.10.2016-------
Die Niederschlagswerte des gewählten Tages lassen sich durch Klicken auf das Datum sortieren.
Die Angaben sind in l/m².

Wetterbeobachtungen Legende:

  • Regen
  • Nieselregen
  • Schneeregen
  • Schnee
  • Graupel
  • Eiskörner
  • Hagel
  • Bodennebel
  • Gewitter
  • Nebelnässe
  • Schneegriesel

Grafische Darstellung der Tagesniederschläge vom 30.08.2019

< 29.08.201931.08.2019 >Monats- und Jahresniederschlag


 
wetterstationen
wetterstationen
- derzeit 83 Stationen
niederschlagsdatenbank
wetterstationen
- kartographische Darstellung
niederschlagsdatenbank
niederschlagsstationen
- derzeit 112 Stationen
niederschlagsdatenbank
niederschlagsstationen
- kartographische Darstellung
 
  treffpunkt & service
--- Anzeigen --------------------------------
zugriffe:
insgesamt: 46.623.007
aktueller monat: 196
heute: 196
momentan online: 1
 
 
monatshöchstwert: 653.625
vorheriger monat: 364.213
gestern: 13.565
tageshöchstwert: 57.073
 
wetterwarte süd
 
konradstraße 3
info@wetterwarte-sued.com
roland roth
 
88427 bad schussenried